Miscellaneous Local Product
Issued by NWS North Platte, NE

Home | Current Version | Previous Version | Graphics & Text | Print | Product List | Glossary On
Versions: 1 2 3 4 5 6 7 8 9 10 11 12 13 14 15 16 17 18 19 20 21 22 23 24 25 26 27 28 29 30 31 32 33 34 35 36 37 38 39 40 41 42 43 44 45 46 47 48 49 50
000
AXUS43 KLBF 210210
MISLBF


WESTERN AND NORTH CENTRAL NEBRASKA HOURLY WEATHER ROUNDUP
NATIONAL WEATHER SERVICE NORTH PLATTE NE
900 PM CDT FRI APR 20 2018

NOTE: "FAIR" INDICATES FEW OR NO CLOUDS BELOW 12,000 FEET WITH NO
SIGNIFICANT WEATHER AND/OR OBSTRUCTIONS TO VISIBILITY.

NOTE: STATIONS NOT REPORTING VARIABLES SUCH AS SKY/WEATHER OR
PRESSURE ARE PROVIDED BY RAWS AND APRS NETWORKS AND ARE NOT UNDER
NATIONAL WEATHER SERVICE QUALITY CONTROL.

...OBSERVATIONS IN AND NEAR THE EASTERN PANHANDLE OF NEBRASKA...

CITY           SKY/WX    TMP DP  RH WIND       PRES   REMARKS
PINE RIDGE     LGT RAIN  40  38  93 SE10G18   30.22R FOG     WCI  33
GORDON         CLOUDY    38  36  91 SE12      30.22R WCI  31
CHADRON        CLOUDY    41  37  86 SE12      30.19S
ALLIANCE       CLOUDY    37  36  96 SE17      30.17R WCI  27
SIDNEY         LGT RAIN  36  33  89 SE14      30.14R FOG     WCI  27
CRESCENT LAKE    N/A     37  36  96 SE12G20     N/A  WCI  29
$$

...OBSERVATIONS IN NORTHERN NEBRASKA AND FAR SOUTHERN SOUTH DAKOTA...

CITY           SKY/WX    TMP DP  RH WIND       PRES   REMARKS
WINNER         CLOUDY    41  36  82 E6        30.33S
VALENTINE      CLOUDY    42  39  89 MISG      30.28F
AINSWORTH      CLOUDY    41  39  93 NE8       30.28F
O`NEILL        CLOUDY    48  37  64 E7        30.32R
THEDFORD       CLOUDY    42  39  89 E9        30.25F
BROKEN BOW     LGT RAIN  42  38  85 E7        30.25F
ORD            LGT RAIN  44  40  85 NE6       30.29F
ALBION         CLOUDY    51  33  49 NE8       30.30S
VALENTINE NWR    N/A     40  37  90 NE3         N/A
HALSEY           N/A     41  40  97 SE5         N/A
BUTTE            N/A     47  38  71 CALM        N/A
CHAMBERS         N/A     47  36  65 S5          N/A
EWING            N/A     48  38  69 MISG        N/A
$$

...OBSERVATIONS IN SOUTHWEST NEBRASKA AND FAR NORTHEAST COLORADO...

CITY           SKY/WX    TMP DP  RH WIND       PRES   REMARKS
WRAY           DRIZZLE   39  39 100 E13       30.14R WCI  32
HOLYOKE        LGT RAIN  41  37  87 SE14      30.15R
IMPERIAL       CLOUDY    40  39  97 E14       30.16R WCI  32
OGALLALA       CLOUDY    40  38  93 E12       30.18R WCI  33
NORTH PLATTE   CLOUDY    41  38  89 E12       30.20F
MCCOOK         CLOUDY    41  39  93 NE13      30.17R
LEXINGTON      CLOUDY    42  38  86 NE18      30.20F
STAPLETON        N/A     39  37  93 CALM        N/A
GOTHENBURG       N/A     41  38  87 E9          N/A
CALLAWAY         N/A     41  39  94 E12         N/A
$$

...OBSERVATIONS IN CENTRAL LINCOLN COUNTY AREA...

CITY           SKY/WX    TMP DP  RH WIND       PRES   REMARKS
N.P. AIRPORT   CLOUDY    41  38  89 E12       30.20F
N.P. DOWNTOWN    N/A     40  38  91 E7          N/A
N.P. SOUTHEAST   N/A     40  37  90 E7          N/A
N.P. HILLCREST   N/A     40  38  92 E20         N/A  WCI  30
$$

...OBSERVATIONS ACROSS THE ROCKIES AND WESTERN HIGH PLAINS...

CITY           SKY/WX    TMP DP  RH WIND       PRES   REMARKS
RAPID CITY     CLOUDY    39  38  96 SE13      30.22S WCI  31
SCOTTSBLUFF    LGT RAIN  38  32  79 E14       30.14R WCI  30
CHEYENNE       LGT SNOW  32  32 100 SE16      30.06R FOG     WCI  21
DENVER         CLOUDY    38  33  82 SE18      29.98R WCI  28
BERTHOUD PASS  CLOUDY    21  10  63 S6        30.01S WCI  14
MONARCH PASS   LGT SNOW  18  14  86 W38G45    30.10S VSB 3/4 WCI  -4
ASPEN          LGT SNOW  31  29  92 NW3       30.01R FOG
STEAMBOAT      CLOUDY    33  33  99 CALM      29.98S
LARAMIE        LGT SNOW  32  31  96 SE12      30.01R FOG     WCI  23
CASPER         LGT RAIN  36  35  96 NE10      30.09R WCI  28
$$

...OBSERVATIONS ACROSS THE NORTHERN PLAINS...

CITY           SKY/WX    TMP DP  RH WIND       PRES   REMARKS
BISMARCK       PTCLDY    51  32  48 S12       30.28R
FARGO          FAIR      49  38  65 S9        30.36R
PIERRE         LGT RAIN  43  41  93 S13       30.33R FOG
SIOUX FALLS    CLOUDY    42  36  79 E7        30.38R
$$

...OBSERVATIONS ACROSS THE CENTRAL AND SOUTHERN PLAINS...

CITY           SKY/WX    TMP DP  RH WIND       PRES   REMARKS
OMAHA          CLOUDY    57  28  33 E10       30.31S
GRAND ISLAND   CLOUDY    50  35  56 NE10      30.25F
KANSAS CITY    CLOUDY    56  25  30 E12       30.26F
WICHITA        LGT RAIN  60  30  32 E12       30.10F
DODGE CITY     LGT RAIN  46  42  86 NE6       30.12R
OKLAHOMA CITY  MOCLDY    59  35  40 SE22      30.05R
DALLAS         PTCLDY    63  43  48 SE14      30.05R
AMARILLO       LGT RAIN  49  47  93 E16       29.95F
$$




USA.gov is the U.S. government's official web portal to all federal, state and local government web resources and services.